Theta_e
310 309 307 307 307 306 299 293 290 300 304 297 288 286 292 297 298 299 297 295 294 292 291 289 289 289 291 297 296 289 289 285 281 284 289 291 288 286 284 276 273 279 275 279
310 309 307 307 308 306 297 289 289 298 299 290 287 290 294 297 296 296 294 292 293 292 290 286 290 291 296 297 294 291 291 282 277 279 282 286 285 288 287 284 282 279 274 279
311 309 307 307 308 307 295 291 287 290 291 290 288 289 291 292 299 297 295 292 293 291 289 290 287 288 293 294 295 300 294 282 281 277 279 282 281 285 286 283 274 280 280 283
311 309 307 306 307 306 296 293 287 287 283 286 288 289 293 291 292 296 296 291 290 288 284 287 286 288 289 291 300 293 288 282 283 284 285 285 285 285 285 282 284 281 284 284
312 310 306 306 307 305 293 288 287 290 288 291 288 293 291 292 294 292 291 290 291 290 285 287 285 286 285 285 289 288 286 280 283 283 287 286 284 286 286 287 288 288 288 286
312 310 306 306 306 302 292 294 294 292 291 291 290 291 293 293 293 294 295 293 290 289 291 293 291 290 289 288 286 283 283 282 279 278 283 283 279 285 289 288 290 290 284 287
311 311 307 304 306 302 297 295 294 291 287 290 289 291 291 290 292 291 293 295 291 295 298 295 292 289 290 289 288 287 281 281 284 277 280 274 283 293 293 288 289 290 289 289
311 311 307 305 306 304 297 297 295 293 287 290 289 290 291 293 294 292 293 295 298 298 293 288 286 285 287 290 292 286 288 287 283 278 274 281 287 290 289 287 285 289 287 289
311 311 309 305 305 306 299 298 298 295 289 288 291 289 290 288 289 291 292 297 298 296 290 287 281 280 286 281 286 290 288 289 285 281 276 275 285 291 294 292 281 289 289 288
311 312 310 306 305 306 301 298 300 295 289 292 292 289 290 293 291 288 290 291 293 295 286 282 280 281 289 281 283 282 279 284 283 282 278 281 290 292 293 279 281 290 291 291
311 311 311 307 306 306 301 298 300 296 291 292 294 294 291 292 292 287 291 289 292 291 285 285 285 282 283 282 285 282 281 282 281 282 278 275 292 290 282 286 291 292 292 293
310 311 311 309 307 306 304 295 300 300 292 291 293 296 298 296 297 293 293 289 290 294 286 284 284 281 281 280 274 291 283 284 282 282 279 288 291 289 292 292 292 293 293 294
310 310 311 309 308 306 304 297 299 296 292 291 292 290 298 299 298 299 290 292 296 295 294 287 283 281 282 274 280 288 291 289 287 284 285 286 290 292 294 294 294 295 295 296
309 310 310 309 308 306 305 297 298 296 292 286 287 297 295 302 301 299 297 296 296 294 291 287 287 282 286 285 289 288 289 288 286 284 286 290 293 293 293 295 295 295 296 295
309 309 310 308 307 305 303 299 299 299 293 286 287 292 296 299 299 297 297 295 292 291 288 284 282 284 285 285 287 286 289 288 286 284 288 288 289 293 294 294 294 295 294 294
309 310 308 307 305 303 299 293 298 300 298 289 283 292 294 298 298 296 294 294 293 291 288 287 284 287 290 286 283 289 291 292 292 287 290 291 292 294 296 294 295 295 295 294
309 309 308 305 304 300 294 292 297 300 299 289 284 286 294 297 297 296 295 295 294 293 290 285 284 286 293 289 284 289 291 291 290 290 292 290 293 291 295 295 295 295 295 295
308 307 305 304 304 300 296 299 301 300 294 292 285 285 289 299 293 293 297 294 295 295 292 290 288 293 293 286 289 290 290 289 290 292 293 293 294 294 294 295 293 292 292 292
305 305 304 299 296 293 295 302 303 300 294 287 287 284 283 296 295 297 296 297 290 294 289 290 290 287 285 289 288 285 288 290 290 292 292 292 291 292 293 292 291 291 291 291
303 299 295 290 294 301 303 296 291 290 291 290 286 290 287 291 291 293 293 294 290 286 288 292 288 288 291 291 287 287 290 291 291 287 288 289 289 290 291 290 291 291 291 291
296 293 292 298 302 297 292 288 287 286 284 287 288 288 287 293 287 289 293 289 289 283 287 288 285 285 289 290 288 289 288 289 289 289 290 290 290 291 290 290 291 291 291 291
297 297 299 298 293 290 286 285 287 285 283 289 288 289 290 290 293 286 287 284 286 281 291 287 284 286 288 287 287 288 288 289 288 289 289 290 291 291 290 290 290 291 292 292
299 295 291 289 288 282 282 279 284 285 289 290 291 289 291 290 290 286 286 284 281 292 286 284 286 286 287 287 288 288 288 288 288 289 290 290 289 290 289 289 291 291 291 292
291 288 282 284 283 283 284 284 288 293 294 294 294 292 289 290 285 286 284 287 290 283 283 281 282 284 286 287 289 287 286 287 287 288 289 289 288 288 289 290 291 290 290 291
289 289 282 284 286 288 289 291 292 294 295 293 291 291 289 287 287 285 283 283 282 283 276 276 283 285 286 286 288 287 287 287 287 287 288 288 288 287 288 289 291 291 291 290
291 289 286 288 287 288 288 291 291 295 294 293 292 288 287 286 284 283 283 280 277 276 276 280 284 285 285 286 288 288 289 288 287 287 287 288 287 286 287 289 291 291 290 290
289 287 290 288 289 290 292 294 293 296 293 288 287 285 285 291 283 281 280 277 279 281 283 284 284 285 285 287 288 289 288 287 286 286 287 287 287 287 287 286 288 289 290 290
Wind_Speed
11 12 16 18 20 23 7 4 3 4 5 3 2 1 4 7 9 17 6 3 3 1 3 3 5 5 2 2 5 4 2 5 4 8 4 6 4 6 6 5 7 4 4 10
10 10 13 17 18 15 4 3 4 5 3 2 2 5 4 2 3 5 7 5 4 3 1 3 1 1 1 3 4 6 6 1 3 8 5 4 2 4 4 2 2 7 4 10
8 9 10 14 17 17 2 3 5 6 6 3 4 4 4 5 6 7 7 6 3 3 2 1 2 2 2 2 2 4 7 4 7 7 7 4 4 4 5 6 3 7 13 20
8 8 9 11 15 18 2 4 1 2 5 3 6 3 3 10 6 3 5 9 8 7 4 4 4 3 3 3 1 3 4 3 4 5 8 6 10 11 10 9 13 10 19 17
9 6 6 9 12 15 4 2 3 4 3 4 4 2 2 10 2 2 4 7 13 9 4 8 8 5 4 6 1 3 2 2 1 5 10 8 12 11 9 10 4 7 9 12
9 6 5 6 9 6 2 2 1 3 3 4 4 2 3 5 10 5 9 8 10 10 12 9 12 7 4 3 6 5 3 4 2 5 3 8 6 4 4 5 7 9 6 5
9 8 7 4 3 5 1 0 1 2 3 4 5 10 15 16 13 5 8 13 10 5 8 7 1 1 4 5 6 6 6 4 3 4 5 4 4 2 4 6 11 4 11 7
9 9 8 6 3 2 1 0 1 1 3 4 10 9 8 9 7 13 13 14 13 11 5 2 3 2 3 1 2 5 3 4 1 2 2 7 2 5 5 7 15 2 5 12
9 9 11 9 6 6 2 1 1 1 2 2 3 5 8 7 4 4 6 5 5 4 1 1 1 2 0 3 1 5 5 2 3 2 2 5 2 8 11 8 9 1 8 15
10 10 12 12 9 8 3 2 3 1 2 3 1 3 4 3 2 3 4 5 4 2 2 2 2 2 1 0 0 2 2 1 3 2 4 5 3 10 9 2 7 12 15 18
10 10 11 13 11 9 5 1 4 3 3 6 8 5 6 5 3 2 4 6 1 1 2 1 1 0 1 2 1 0 3 2 3 2 2 6 1 4 2 5 11 16 18 20
10 10 11 15 13 10 8 2 1 2 2 5 4 13 14 14 12 0 2 2 3 2 1 0 0 1 2 2 2 1 2 4 2 6 6 4 3 7 10 6 15 18 20 22
10 9 10 14 14 11 10 2 2 1 3 5 3 5 4 9 16 11 4 3 2 2 2 3 1 0 3 1 3 2 3 2 2 4 4 4 11 8 3 14 17 21 23 25
10 9 10 13 13 10 9 3 3 1 1 3 6 5 4 2 8 12 13 3 4 2 1 2 2 2 3 2 1 1 1 1 2 7 8 11 6 13 14 19 21 21 22 25
9 9 12 12 10 7 3 2 3 2 1 3 7 10 6 4 10 12 12 10 2 3 3 2 2 2 2 0 1 2 0 1 1 4 4 5 13 15 21 21 22 21 25 28
9 10 13 13 10 10 3 1 2 4 2 2 4 4 5 4 1 6 7 5 3 2 1 1 2 4 1 1 2 2 2 2 4 5 8 13 16 16 15 20 21 21 24 28
9 12 12 13 13 3 2 1 1 7 3 2 5 4 3 4 5 3 3 4 2 2 1 1 2 2 1 1 2 2 3 5 8 6 10 9 8 15 19 19 20 22 23 22
11 13 13 8 11 4 1 2 7 6 2 2 3 4 3 4 2 2 3 3 3 2 2 1 2 1 0 2 3 2 5 7 6 9 10 11 14 15 16 17 18 22 22 25
17 16 15 4 2 1 2 6 11 2 1 2 2 2 2 5 2 3 2 2 2 1 2 1 2 2 3 2 1 2 4 4 9 12 11 11 13 14 16 19 20 20 22 24
21 4 2 2 3 4 9 2 2 1 3 3 3 2 2 1 3 1 1 2 2 2 2 3 2 2 3 3 2 4 4 6 7 10 14 15 15 16 18 18 16 17 19 22
2 2 2 1 7 2 2 2 3 2 3 4 3 5 1 2 3 2 3 2 2 2 2 2 2 2 3 2 1 2 4 5 6 7 9 11 12 14 16 16 17 17 19 19
5 4 3 2 2 2 3 3 3 4 4 4 3 3 3 3 3 2 2 3 2 2 4 2 2 2 2 1 2 4 5 6 7 8 10 12 12 12 13 14 15 16 17 18
3 2 2 2 2 3 5 4 3 3 3 3 3 3 3 3 3 3 2 2 2 4 3 2 1 2 1 1 3 5 6 7 7 8 9 10 12 12 12 13 13 16 15 17
2 4 4 4 4 4 4 3 1 0 1 4 1 2 4 3 3 1 3 1 2 2 2 3 2 4 2 2 2 3 5 6 6 7 9 13 13 12 12 12 12 14 16 17
3 3 4 6 4 3 3 3 1 2 3 2 3 2 2 2 2 2 2 2 2 3 4 3 3 3 2 1 2 3 5 5 5 5 7 11 12 11 12 13 12 12 15 16
2 4 3 2 2 3 1 3 3 3 2 2 1 2 1 2 2 1 3 3 4 4 3 3 4 3 2 1 2 3 3 5 5 5 5 7 11 12 11 12 13 13 15 17
3 3 2 2 2 2 2 3 1 1 2 2 2 2 2 2 1 2 3 5 4 3 2 3 5 4 3 2 3 4 5 5 6 5 6 6 8 9 9 13 14 13 15 15
Wind_Direction
309 321 324 329 336 339 23 350 48 317 345 46 39 72 313 333 334 340 292 313 306 262 164 249 222 211 238 43 147 161 149 157 227 231 268 248 167 188 162 131 278 252 207 267
301 315 321 326 336 2 329 3 285 316 49 64 22 322 318 289 26 353 308 302 5 6 230 296 316 259 38 131 144 173 184 212 349 332 353 350 198 191 172 132 117 223 230 264
296 306 315 327 332 343 92 29 352 333 26 26 46 356 302 340 353 279 323 283 41 1 301 151 264 280 246 320 225 169 142 156 176 206 232 186 263 240 216 172 196 268 235 278
290 294 310 325 334 340 60 30 357 171 324 334 333 294 310 298 291 286 359 313 27 8 310 314 249 245 311 320 56 83 121 204 195 252 258 247 257 259 249 206 237 238 279 264
286 272 288 320 338 342 66 75 18 355 280 290 303 230 275 285 307 8 272 258 327 327 259 247 272 215 208 235 5 128 14 255 118 273 266 260 265 258 250 255 238 291 295 289
288 264 255 308 350 18 73 310 313 103 308 301 299 244 285 334 350 258 243 258 316 275 267 277 258 225 200 191 176 186 145 155 110 263 315 308 276 218 221 229 225 259 269 258
280 253 231 268 1 53 98 352 345 110 276 286 292 309 310 301 294 275 275 290 285 279 328 288 150 117 221 224 240 178 147 154 173 264 346 260 251 106 261 310 277 288 296 295
277 254 214 228 200 152 107 146 126 210 273 266 284 301 306 323 313 286 270 264 259 300 291 304 347 337 32 86 48 188 181 144 192 246 217 293 104 29 2 340 295 254 329 316
280 265 209 207 215 188 121 226 160 196 292 249 309 320 301 290 276 292 276 316 311 303 26 69 217 252 253 313 120 78 90 70 174 166 225 255 77 345 322 322 277 176 327 317
276 271 208 202 211 206 161 247 192 146 248 264 228 261 315 314 271 269 286 329 316 356 278 92 175 248 261 234 78 198 28 38 223 258 259 290 48 321 301 289 299 316 322 303
275 267 217 201 206 225 164 231 187 185 235 266 253 249 242 247 206 228 330 321 327 309 51 50 288 211 305 37 296 17 162 212 239 302 276 287 326 305 113 270 302 307 300 293
268 261 221 200 200 218 174 224 170 132 240 264 241 258 247 237 232 174 259 294 301 289 88 62 98 336 28 137 285 110 227 187 236 187 228 242 234 238 286 279 302 299 297 298
259 252 238 200 198 207 187 159 134 138 273 271 279 269 261 222 231 226 230 245 318 352 258 157 137 247 127 119 263 9 47 12 258 8 281 279 298 308 272 319 309 304 301 302
253 238 226 197 198 204 181 162 156 144 286 285 283 301 287 252 187 193 210 268 358 300 358 74 125 191 167 236 284 201 204 14 245 265 290 311 258 328 315 309 306 308 310 308
252 238 190 191 178 185 175 128 179 185 219 287 290 306 257 225 188 210 210 228 239 332 346 56 235 245 122 87 78 257 164 312 284 278 306 275 290 305 308 307 314 315 316 314
237 204 180 164 162 124 100 285 171 174 174 280 289 307 286 331 172 166 181 181 170 222 223 256 269 253 139 203 227 123 72 284 239 270 292 285 282 293 312 313 313 313 313 311
220 173 163 155 155 131 167 196 141 155 134 246 284 293 270 258 213 166 140 163 190 180 154 250 210 296 41 222 242 124 315 301 298 276 303 299 311 312 314 313 313 315 311 316
156 143 138 145 143 94 242 195 152 148 190 232 273 276 296 349 211 148 179 144 164 152 194 224 208 132 242 251 115 20 332 306 295 320 317 298 306 309 318 321 324 324 324 329
126 118 112 92 89 159 228 183 184 174 278 260 245 268 286 339 274 119 88 73 178 127 222 228 88 216 229 119 120 307 289 331 309 317 318 319 318 319 326 335 329 326 331 332
125 100 121 184 204 180 134 145 149 169 207 229 250 259 257 291 329 106 176 192 172 191 233 118 218 251 99 103 185 251 327 334 336 330 334 330 324 330 338 330 329 329 330 330
94 122 147 94 142 184 167 226 215 172 240 218 236 206 226 169 211 216 204 172 145 173 184 243 214 237 128 123 7 295 332 322 317 302 306 315 316 321 330 330 333 334 334 338
141 117 109 123 181 194 246 206 179 213 247 201 213 191 196 250 210 214 201 160 134 193 140 233 233 87 107 72 316 314 327 338 330 324 322 326 328 330 329 332 337 337 337 342
84 104 146 160 146 213 224 205 201 226 201 224 200 176 214 217 211 241 167 156 161 119 205 213 96 139 156 304 320 341 355 356 338 332 338 339 343 343 343 340 341 340 345 349
135 159 171 202 191 234 211 209 195 238 312 285 215 248 187 186 166 179 108 106 151 232 238 203 190 175 192 327 330 27 344 347 342 338 341 351 354 347 344 346 344 348 351 350
153 192 215 216 241 278 246 209 68 260 265 305 301 251 187 196 127 22 97 136 257 204 226 222 190 178 148 52 7 7 359 351 344 339 350 358 355 352 345 345 344 355 356 357
215 210 242 225 236 244 214 208 256 223 229 245 226 304 238 54 103 136 211 129 220 244 209 203 153 159 122 46 358 357 7 18 2 353 352 357 357 353 344 344 353 1 2 2
217 229 224 237 297 279 239 248 216 256 334 259 179 214 123 90 324 261 177 195 216 178 166 165 169 126 91 90 39 50 66 44 18 357 4 360 345 355 358 1 353 358 4 5